SAS454 ENZV-EDDC

Flight info

Callsign SAS454
Flight time 1h 29m
Altitude 37000
Route BIVKI DCT RAXLU DCT PITEN Z998 OSKAN OSKAN4B
Aircraft B738/M-SDE2E3FGHIRWXY/LB1

Departure

Time 2026-04-09 08:07
Airport Stavanger Airport, Sola (ENZV)

Arrival

Time 2026-04-09 09:36
Airport Dresden Airport (EDDC)
Time Latitude Longitude Altitude Speed Heading
2026-04-09 07:20 58.88159 5.63071 35 ft 0 kts 315°
2026-04-09 07:55 58.88149 5.63091 35 ft 4 kts 315°
2026-04-09 07:55 58.88130 5.63127 32 ft 4 kts 315°
2026-04-09 07:55 58.88111 5.63163 36 ft 4 kts 316°
2026-04-09 07:55 58.88102 5.63181 36 ft 0 kts 316°
2026-04-09 07:57 58.88102 5.63180 36 ft 0 kts 316°
2026-04-09 07:57 58.88112 5.63171 35 ft 4 kts 343°
2026-04-09 07:57 58.88118 5.63170 33 ft 0 kts 355°
2026-04-09 08:00 58.88129 5.63170 35 ft 4 kts
2026-04-09 08:00 58.88172 5.63214 34 ft 10 kts 36°
2026-04-09 08:00 58.88232 5.63277 34 ft 10 kts 26°
2026-04-09 08:00 58.88278 5.63367 54 ft 10 kts 57°
2026-04-09 08:01 58.88321 5.63443 33 ft 5 kts 30°
2026-04-09 08:01 58.88345 5.63441 33 ft 10 kts 354°
2026-04-09 08:01 58.88444 5.63429 31 ft 18 kts 358°
2026-04-09 08:01 58.88577 5.63422 31 ft 20 kts 359°
2026-04-09 08:02 58.88707 5.63417 30 ft 18 kts 359°
2026-04-09 08:02 58.88831 5.63414 29 ft 18 kts 359°
2026-04-09 08:02 58.88951 5.63412 27 ft 17 kts 359°
2026-04-09 08:02 58.89065 5.63409 26 ft 16 kts 359°
2026-04-09 08:03 58.89173 5.63405 25 ft 15 kts 359°
2026-04-09 08:03 58.89272 5.63400 24 ft 10 kts 360°
2026-04-09 08:03 58.89337 5.63442 29 ft 10 kts 53°
2026-04-09 08:03 58.89346 5.63533 24 ft 0 kts 88°
2026-04-09 08:05 58.89346 5.63538 24 ft 2 kts 89°
2026-04-09 08:05 58.89346 5.63618 25 ft 9 kts 90°
2026-04-09 08:06 58.89322 5.63727 27 ft 9 kts 150°
2026-04-09 08:06 58.89287 5.63735 26 ft 0 kts 178°
2026-04-09 08:06 58.89178 5.63740 27 ft 48 kts 178°
2026-04-09 08:06 58.88601 5.63763 31 ft 115 kts 179°
2026-04-09 08:07 58.87718 5.63763 558 ft 128 kts 173°
2026-04-09 08:07 58.86791 5.63609 1286 ft 140 kts 173°
2026-04-09 08:07 58.85795 5.63527 2038 ft 143 kts 172°
2026-04-09 08:07 58.84722 5.63557 2511 ft 169 kts 172°
2026-04-09 08:08 58.83466 5.63672 2813 ft 190 kts 173°
2026-04-09 08:08 58.82111 5.63786 3318 ft 203 kts 174°
2026-04-09 08:08 58.80632 5.63893 3795 ft 219 kts 175°
2026-04-09 08:08 58.79104 5.63982 4749 ft 219 kts 177°
2026-04-09 08:09 58.77565 5.64056 5570 ft 224 kts 179°
2026-04-09 08:09 58.75983 5.64122 6367 ft 229 kts 180°
2026-04-09 08:09 58.74385 5.64183 7207 ft 231 kts 180°
2026-04-09 08:09 58.72764 5.64241 7984 ft 235 kts 181°
2026-04-09 08:10 58.71074 5.64298 8525 ft 249 kts 181°
2026-04-09 08:10 58.69336 5.64862 9218 ft 258 kts 162°
2026-04-09 08:10 58.67709 5.66238 10229 ft 259 kts 156°
2026-04-09 08:10 58.66228 5.68462 10594 ft 284 kts 143°
2026-04-09 08:11 58.64725 5.71169 10858 ft 305 kts 143°
2026-04-09 08:11 58.63177 5.74028 11491 ft 312 kts 143°
2026-04-09 08:11 58.61591 5.76948 12119 ft 320 kts 142°
2026-04-09 08:11 58.59968 5.79910 12915 ft 323 kts 141°
2026-04-09 08:12 58.58317 5.82898 13647 ft 328 kts 143°
2026-04-09 08:12 58.56652 5.85889 14501 ft 329 kts 142°
2026-04-09 08:12 58.54949 5.88924 15064 ft 339 kts 142°
2026-04-09 08:12 58.53811 5.90949 15661 ft 336 kts 143°
2026-04-09 08:13 58.52083 5.94017 16352 ft 343 kts 141°
2026-04-09 08:13 58.50317 5.97141 17091 ft 345 kts 143°
2026-04-09 08:13 58.48552 6.00262 17905 ft 348 kts 142°
2026-04-09 08:13 58.46748 6.03440 18423 ft 356 kts 142°
2026-04-09 08:14 58.44938 6.06629 19242 ft 354 kts 143°
2026-04-09 08:14 58.42535 6.10857 20117 ft 357 kts 143°
2026-04-09 08:14 58.41292 6.13040 20454 ft 362 kts 142°
2026-04-09 08:14 58.39410 6.16340 20876 ft 371 kts 141°
2026-04-09 08:15 58.37491 6.19700 21407 ft 377 kts 141°
2026-04-09 08:15 58.35566 6.23063 22190 ft 375 kts 141°
2026-04-09 08:15 58.33575 6.26307 22652 ft 381 kts 145°
2026-04-09 08:15 58.31375 6.29215 23080 ft 388 kts 148°
2026-04-09 08:16 58.29084 6.31984 23655 ft 391 kts 149°
2026-04-09 08:16 58.26765 6.34721 24172 ft 394 kts 149°
2026-04-09 08:16 58.24429 6.37485 24608 ft 398 kts 149°
2026-04-09 08:16 58.22075 6.40298 25011 ft 402 kts 149°
2026-04-09 08:17 58.19731 6.43128 25426 ft 407 kts 149°
2026-04-09 08:17 58.17341 6.46034 25848 ft 410 kts 150°
2026-04-09 08:17 58.14931 6.48977 26263 ft 414 kts 149°
2026-04-09 08:17 58.12501 6.51952 26641 ft 418 kts 149°
2026-04-09 08:18 58.10048 6.54954 27037 ft 422 kts 149°
2026-04-09 08:18 58.07571 6.57982 27385 ft 427 kts 150°
2026-04-09 08:18 58.05058 6.61049 27688 ft 432 kts 150°
2026-04-09 08:18 58.02520 6.64143 28047 ft 436 kts 149°
2026-04-09 08:19 57.99966 6.67253 28446 ft 439 kts 150°
2026-04-09 08:19 57.97382 6.70391 28710 ft 445 kts 150°
2026-04-09 08:19 57.94764 6.73566 29025 ft 449 kts 149°
2026-04-09 08:19 57.92142 6.76743 29571 ft 448 kts 148°
2026-04-09 08:20 57.89518 6.79917 29942 ft 450 kts 148°
2026-04-09 08:20 57.86863 6.83119 30150 ft 457 kts 149°
2026-04-09 08:20 57.84170 6.86360 30383 ft 461 kts 148°
2026-04-09 08:20 57.81473 6.89604 30800 ft 460 kts 148°
2026-04-09 08:21 57.78779 6.92836 31172 ft 460 kts 148°
2026-04-09 08:21 57.76072 6.96079 31357 ft 465 kts 149°
2026-04-09 08:21 57.73325 6.99361 31460 ft 471 kts 149°
2026-04-09 08:21 57.70552 7.02668 31691 ft 474 kts 149°
2026-04-09 08:22 57.67777 7.05974 32130 ft 472 kts 149°
2026-04-09 08:22 57.65020 7.09253 32626 ft 468 kts 149°
2026-04-09 08:22 57.62281 7.12506 33067 ft 466 kts 149°
2026-04-09 08:22 57.59548 7.15745 33408 ft 466 kts 148°
2026-04-09 08:23 57.56830 7.18959 34034 ft 458 kts 148°
2026-04-09 08:23 57.54160 7.22112 34592 ft 452 kts 148°
2026-04-09 08:23 57.51496 7.25250 34817 ft 455 kts 148°
2026-04-09 08:23 57.48804 7.28417 34837 ft 462 kts 148°
2026-04-09 08:24 57.46076 7.31619 34977 ft 465 kts 148°
2026-04-09 08:24 57.43344 7.34820 35299 ft 463 kts 148°
2026-04-09 08:24 57.40624 7.38002 35641 ft 461 kts 148°
2026-04-09 08:24 57.37911 7.41170 35905 ft 461 kts 148°
2026-04-09 08:25 57.35191 7.44340 36162 ft 462 kts 148°
2026-04-09 08:25 57.32475 7.47501 36448 ft 461 kts 148°
2026-04-09 08:25 57.29765 7.50649 36752 ft 459 kts 148°
2026-04-09 08:25 57.27061 7.53784 37031 ft 459 kts 148°
2026-04-09 08:26 57.24355 7.56917 37242 ft 459 kts 148°
2026-04-09 08:26 57.21637 7.60058 37276 ft 463 kts 148°
2026-04-09 08:26 57.16151 7.66379 37297 ft 465 kts 148°
2026-04-09 08:27 57.10697 7.72642 37297 ft 458 kts 148°
2026-04-09 08:27 57.05344 7.78767 37279 ft 448 kts 148°
2026-04-09 08:28 57.00106 7.84742 37294 ft 448 kts 148°
2026-04-09 08:28 56.94750 7.90830 37311 ft 457 kts 148°
2026-04-09 08:29 56.89347 7.96948 37289 ft 456 kts 148°
2026-04-09 08:29 56.83963 8.03026 37283 ft 454 kts 148°
2026-04-09 08:30 56.78590 8.09068 37301 ft 453 kts 148°
2026-04-09 08:30 56.73222 8.15086 37296 ft 453 kts 148°
2026-04-09 08:31 56.65155 8.24092 37315 ft 454 kts 148°
2026-04-09 08:32 56.59754 8.30096 37313 ft 456 kts 148°
2026-04-09 08:32 56.54334 8.36101 37306 ft 457 kts 148°
2026-04-09 08:33 56.48895 8.42105 37309 ft 459 kts 148°
2026-04-09 08:33 56.43436 8.48111 37312 ft 460 kts 148°
2026-04-09 08:34 56.37962 8.54113 37322 ft 461 kts 148°
2026-04-09 08:34 56.32471 8.60115 37325 ft 462 kts 148°
2026-04-09 08:35 56.26968 8.66107 37324 ft 463 kts 147°
2026-04-09 08:35 56.21448 8.72099 37324 ft 463 kts 147°
2026-04-09 08:36 56.15923 8.78075 37320 ft 464 kts 148°
2026-04-09 08:36 56.10394 8.84036 37326 ft 464 kts 148°
2026-04-09 08:37 56.04859 8.89983 37328 ft 464 kts 148°
2026-04-09 08:37 55.99324 8.95910 37334 ft 464 kts 148°
2026-04-09 08:38 55.93791 9.01813 37329 ft 463 kts 148°
2026-04-09 08:38 55.88260 9.07696 37376 ft 463 kts 148°
2026-04-09 08:39 55.82719 9.13570 37355 ft 463 kts 148°
2026-04-09 08:39 55.77215 9.19385 37348 ft 463 kts 148°
2026-04-09 08:40 55.71666 9.25228 37347 ft 464 kts 148°
2026-04-09 08:40 55.66116 9.31053 37345 ft 464 kts 148°
2026-04-09 08:41 55.60562 9.36862 37351 ft 464 kts 148°
2026-04-09 08:41 55.55003 9.42658 37353 ft 464 kts 148°
2026-04-09 08:42 55.49439 9.48439 37350 ft 464 kts 148°
2026-04-09 08:42 55.43867 9.54209 37354 ft 465 kts 148°
2026-04-09 08:43 55.38284 9.59973 37345 ft 465 kts 148°
2026-04-09 08:43 55.32697 9.65720 37355 ft 465 kts 148°
2026-04-09 08:44 55.27107 9.71453 37357 ft 465 kts 148°
2026-04-09 08:44 55.21515 9.77168 37366 ft 465 kts 148°
2026-04-09 08:45 55.15918 9.82870 37371 ft 465 kts 148°
2026-04-09 08:45 55.10318 9.88557 37361 ft 465 kts 148°
2026-04-09 08:46 55.04712 9.94231 37374 ft 466 kts 148°
2026-04-09 08:46 54.99098 9.99896 37377 ft 467 kts 148°
2026-04-09 08:47 54.93473 10.05553 37371 ft 467 kts 148°
2026-04-09 08:47 54.87846 10.11194 37372 ft 467 kts 148°
2026-04-09 08:48 54.82211 10.16827 37354 ft 467 kts 148°
2026-04-09 08:48 54.76574 10.22449 37373 ft 468 kts 148°
2026-04-09 08:49 54.70930 10.28052 37367 ft 468 kts 148°
2026-04-09 08:49 54.65210 10.33449 37369 ft 469 kts 150°
2026-04-09 08:50 54.59443 10.38724 37372 ft 469 kts 150°
2026-04-09 08:50 54.53681 10.44009 37364 ft 469 kts 150°
2026-04-09 08:51 54.47926 10.49306 37372 ft 469 kts 150°
2026-04-09 08:51 54.42168 10.54603 37368 ft 470 kts 150°
2026-04-09 08:52 54.36406 10.59888 37367 ft 470 kts 150°
2026-04-09 08:52 54.30640 10.65159 37368 ft 470 kts 150°
2026-04-09 08:53 54.24867 10.70417 37373 ft 470 kts 150°
2026-04-09 08:53 54.19083 10.75669 37368 ft 471 kts 150°
2026-04-09 08:54 54.13297 10.80906 37376 ft 471 kts 150°
2026-04-09 08:54 54.07511 10.86127 37375 ft 471 kts 150°
2026-04-09 08:55 54.01759 10.91300 37367 ft 470 kts 150°
2026-04-09 08:55 53.95969 10.96491 37367 ft 470 kts 150°
2026-04-09 08:56 53.90183 11.01663 37368 ft 470 kts 150°
2026-04-09 08:56 53.84390 11.06825 37406 ft 470 kts 150°
2026-04-09 08:57 53.78589 11.11977 37385 ft 471 kts 150°
2026-04-09 08:57 53.72786 11.17114 37361 ft 471 kts 151°
2026-04-09 08:58 53.66987 11.22232 37356 ft 470 kts 151°
2026-04-09 08:58 53.61189 11.27333 37359 ft 470 kts 151°
2026-04-09 08:59 53.55403 11.32436 37356 ft 469 kts 150°
2026-04-09 08:59 53.49612 11.37506 37357 ft 469 kts 151°
2026-04-09 09:00 53.44794 11.41702 37379 ft 469 kts 151°
2026-04-09 09:00 53.38999 11.46738 37359 ft 469 kts 151°
2026-04-09 09:01 53.33203 11.51761 37359 ft 469 kts 151°
2026-04-09 09:01 53.27404 11.56771 37356 ft 469 kts 151°
2026-04-09 09:02 53.21606 11.61766 37357 ft 469 kts 151°
2026-04-09 09:02 53.15807 11.66747 37335 ft 469 kts 151°
2026-04-09 09:03 53.10006 11.71714 37362 ft 469 kts 151°
2026-04-09 09:03 53.04205 11.76669 37402 ft 469 kts 151°
2026-04-09 09:04 52.98753 11.82509 37364 ft 465 kts 135°
2026-04-09 09:04 52.94542 11.90520 37369 ft 459 kts 123°
2026-04-09 09:05 52.90766 11.99068 37356 ft 460 kts 123°
2026-04-09 09:05 52.86921 12.07536 37355 ft 460 kts 124°
2026-04-09 09:05 52.85005 12.11697 37201 ft 463 kts 124°
2026-04-09 09:06 52.83043 12.15944 36782 ft 463 kts 124°
2026-04-09 09:06 52.81101 12.20139 36426 ft 457 kts 124°
2026-04-09 09:06 52.79177 12.24293 36007 ft 453 kts 124°
2026-04-09 09:06 52.77269 12.28415 35587 ft 449 kts 124°
2026-04-09 09:07 52.75382 12.32491 35186 ft 445 kts 124°
2026-04-09 09:07 52.73507 12.36530 34793 ft 441 kts 124°
2026-04-09 09:07 52.71607 12.40482 34397 ft 439 kts 129°
2026-04-09 09:07 52.69399 12.43955 33974 ft 438 kts 139°
2026-04-09 09:08 52.66901 12.46772 33650 ft 434 kts 147°
2026-04-09 09:08 52.64315 12.49294 33243 ft 430 kts 148°
2026-04-09 09:08 52.61745 12.51759 32876 ft 426 kts 148°
2026-04-09 09:08 52.59197 12.54207 32486 ft 422 kts 147°
2026-04-09 09:09 52.56682 12.56641 32109 ft 418 kts 147°
2026-04-09 09:09 52.54186 12.59071 31754 ft 415 kts 147°
2026-04-09 09:09 52.51711 12.61490 31374 ft 413 kts 147°
2026-04-09 09:09 52.49255 12.63894 31010 ft 410 kts 147°
2026-04-09 09:10 52.46816 12.66282 30648 ft 407 kts 147°
2026-04-09 09:10 52.44390 12.68654 30261 ft 405 kts 147°
2026-04-09 09:10 52.41982 12.71005 29859 ft 401 kts 147°
2026-04-09 09:10 52.39631 12.73297 29508 ft 397 kts 147°
2026-04-09 09:11 52.37270 12.75596 29136 ft 393 kts 147°
2026-04-09 09:11 52.34929 12.77873 28760 ft 390 kts 147°
2026-04-09 09:11 52.32609 12.80127 28400 ft 386 kts 147°
2026-04-09 09:11 52.30307 12.82362 28042 ft 383 kts 147°
2026-04-09 09:12 52.28027 12.84572 27691 ft 380 kts 147°
2026-04-09 09:12 52.25757 12.86767 27326 ft 378 kts 147°
2026-04-09 09:12 52.23506 12.88940 26984 ft 375 kts 147°
2026-04-09 09:12 52.21272 12.91106 26627 ft 372 kts 147°
2026-04-09 09:13 52.19054 12.93264 26301 ft 371 kts 147°
2026-04-09 09:13 52.16837 12.95424 25952 ft 371 kts 147°
2026-04-09 09:13 52.14622 12.97581 25601 ft 372 kts 147°
2026-04-09 09:13 52.12379 12.99764 25273 ft 380 kts 147°
2026-04-09 09:14 52.10084 13.01996 24916 ft 387 kts 147°
2026-04-09 09:14 52.07773 13.04235 24547 ft 386 kts 147°
2026-04-09 09:14 52.05468 13.06465 24179 ft 384 kts 147°
2026-04-09 09:14 52.03177 13.08680 23801 ft 383 kts 147°
2026-04-09 09:15 52.00895 13.10882 23392 ft 380 kts 147°
2026-04-09 09:15 51.98630 13.13068 23008 ft 377 kts 147°
2026-04-09 09:15 51.96385 13.15231 22652 ft 374 kts 147°
2026-04-09 09:15 51.94158 13.17375 22310 ft 371 kts 147°
2026-04-09 09:16 51.91947 13.19502 21946 ft 368 kts 147°
2026-04-09 09:16 51.89754 13.21611 21602 ft 365 kts 147°
2026-04-09 09:16 51.87576 13.23703 21256 ft 363 kts 147°
2026-04-09 09:16 51.85411 13.25777 20935 ft 360 kts 147°
2026-04-09 09:17 51.83256 13.27836 20587 ft 359 kts 147°
2026-04-09 09:17 51.81112 13.29877 20241 ft 357 kts 147°
2026-04-09 09:17 51.78972 13.31901 19917 ft 355 kts 147°
2026-04-09 09:17 51.76844 13.33910 19573 ft 354 kts 147°
2026-04-09 09:18 51.74722 13.35913 19247 ft 352 kts 147°
2026-04-09 09:18 51.72611 13.37906 18919 ft 351 kts 147°
2026-04-09 09:18 51.70507 13.39893 18581 ft 350 kts 147°
2026-04-09 09:18 51.68412 13.41876 18210 ft 348 kts 147°
2026-04-09 09:19 51.66326 13.43847 17852 ft 347 kts 147°
2026-04-09 09:19 51.64251 13.45802 17512 ft 345 kts 147°
2026-04-09 09:19 51.62186 13.47744 17184 ft 342 kts 147°
2026-04-09 09:19 51.60136 13.49669 16851 ft 340 kts 147°
2026-04-09 09:20 51.58097 13.51581 16532 ft 338 kts 147°
2026-04-09 09:20 51.56069 13.53482 16202 ft 337 kts 147°
2026-04-09 09:20 51.54053 13.55371 15877 ft 335 kts 147°
2026-04-09 09:20 51.52044 13.57251 15553 ft 333 kts 147°
2026-04-09 09:21 51.50045 13.59118 15249 ft 332 kts 147°
2026-04-09 09:21 51.48048 13.60980 14910 ft 332 kts 147°
2026-04-09 09:21 51.45973 13.62588 14556 ft 334 kts 164°
2026-04-09 09:21 51.43663 13.62973 14127 ft 336 kts 180°
2026-04-09 09:22 51.41317 13.62986 13708 ft 337 kts 181°
2026-04-09 09:22 51.38978 13.62969 13346 ft 335 kts 181°
2026-04-09 09:22 51.36684 13.62961 13026 ft 333 kts 180°
2026-04-09 09:22 51.34371 13.62966 12690 ft 331 kts 180°
2026-04-09 09:23 51.32073 13.62982 12355 ft 329 kts 180°
2026-04-09 09:23 51.29789 13.63005 12051 ft 327 kts 180°
2026-04-09 09:23 51.27519 13.63032 11729 ft 325 kts 180°
2026-04-09 09:23 51.25265 13.63060 11428 ft 323 kts 180°
2026-04-09 09:24 51.23021 13.63089 11115 ft 321 kts 180°
2026-04-09 09:24 51.20794 13.63082 10805 ft 319 kts 185°
2026-04-09 09:24 51.18695 13.62124 10543 ft 311 kts 211°
2026-04-09 09:24 51.16972 13.60200 10416 ft 297 kts 223°
2026-04-09 09:25 51.15423 13.58087 10105 ft 292 kts 225°
2026-04-09 09:25 51.13890 13.55921 9695 ft 294 kts 225°
2026-04-09 09:25 51.12359 13.53764 9362 ft 294 kts 224°
2026-04-09 09:25 51.10824 13.51621 9046 ft 294 kts 224°
2026-04-09 09:26 51.09284 13.49491 8731 ft 293 kts 223°
2026-04-09 09:26 51.07746 13.47378 8442 ft 292 kts 223°
2026-04-09 09:26 51.06211 13.45279 8150 ft 291 kts 223°
2026-04-09 09:26 51.04679 13.43189 7869 ft 290 kts 223°
2026-04-09 09:27 51.03152 13.41111 7564 ft 288 kts 222°
2026-04-09 09:27 51.01635 13.39052 7303 ft 286 kts 222°
2026-04-09 09:27 51.00122 13.36999 6990 ft 283 kts 222°
2026-04-09 09:27 50.98544 13.35213 6689 ft 277 kts 203°
2026-04-09 09:28 50.96700 13.34722 6451 ft 267 kts 174°
2026-04-09 09:28 50.94960 13.35526 6282 ft 256 kts 150°
2026-04-09 09:28 50.93594 13.37194 6180 ft 242 kts 129°
2026-04-09 09:28 50.92535 13.39120 6098 ft 223 kts 128°
2026-04-09 09:29 50.91552 13.40937 6015 ft 213 kts 127°
2026-04-09 09:29 50.90801 13.42843 5894 ft 197 kts 96°
2026-04-09 09:29 50.91029 13.44895 5892 ft 192 kts 53°
2026-04-09 09:29 50.91910 13.46467 5694 ft 193 kts 46°
2026-04-09 09:30 50.92791 13.48018 5476 ft 186 kts 45°
2026-04-09 09:30 50.93686 13.49437 5281 ft 178 kts 42°
2026-04-09 09:30 50.94584 13.50757 5083 ft 175 kts 40°
2026-04-09 09:30 50.95488 13.52040 4900 ft 174 kts 40°
2026-04-09 09:31 50.96397 13.53309 4706 ft 173 kts 40°
2026-04-09 09:31 50.97293 13.54553 4515 ft 174 kts 40°
2026-04-09 09:31 50.98230 13.55848 4331 ft 180 kts 40°
2026-04-09 09:31 50.99170 13.57146 4162 ft 177 kts 40°
2026-04-09 09:32 51.00098 13.58429 3968 ft 176 kts 40°
2026-04-09 09:32 51.01019 13.59702 3720 ft 174 kts 39°
2026-04-09 09:32 51.01925 13.60954 3497 ft 173 kts 40°
2026-04-09 09:32 51.02832 13.62204 3259 ft 173 kts 40°
2026-04-09 09:33 51.03729 13.63439 3032 ft 167 kts 40°
2026-04-09 09:33 51.04597 13.64633 2826 ft 165 kts 40°
2026-04-09 09:33 51.05447 13.65808 2579 ft 159 kts 40°
2026-04-09 09:33 51.06269 13.66942 2410 ft 154 kts 40°
2026-04-09 09:34 51.07057 13.68032 2193 ft 150 kts 40°
2026-04-09 09:34 51.07836 13.69106 1992 ft 148 kts 39°
2026-04-09 09:34 51.09345 13.71179 1608 ft 140 kts 40°
2026-04-09 09:35 51.10066 13.72174 1423 ft 135 kts 40°
2026-04-09 09:35 51.10775 13.73151 1278 ft 136 kts 41°
2026-04-09 09:35 51.11489 13.74136 1101 ft 135 kts 40°
2026-04-09 09:35 51.12218 13.75126 920 ft 141 kts 41°
2026-04-09 09:36 51.12946 13.76142 754 ft 134 kts 40°
2026-04-09 09:36 51.13515 13.76919 736 ft 88 kts 40°
2026-04-09 09:36 51.13831 13.77351 723 ft 26 kts 40°
2026-04-09 09:36 51.13894 13.77522 720 ft 17 kts 116°
2026-04-09 09:37 51.13821 13.77660 718 ft 11 kts 133°
2026-04-09 09:37 51.13817 13.77667 715 ft 0 kts 133°
2026-04-09 09:37 51.13815 13.77670 715 ft 2 kts 133°
2026-04-09 09:37 51.13796 13.77701 716 ft 6 kts 143°
2026-04-09 09:38 51.13751 13.77703 714 ft 7 kts 201°
2026-04-09 09:38 51.13709 13.77655 716 ft 9 kts 219°
2026-04-09 09:38 51.13635 13.77552 720 ft 19 kts 221°
2026-04-09 09:38 51.13531 13.77411 727 ft 20 kts 220°
2026-04-09 09:39 51.13430 13.77272 731 ft 19 kts 221°
2026-04-09 09:39 51.13332 13.77137 739 ft 18 kts 220°
2026-04-09 09:39 51.13236 13.77010 743 ft 18 kts 220°
2026-04-09 09:39 51.13138 13.76878 747 ft 18 kts 220°
2026-04-09 09:40 51.13041 13.76754 747 ft 18 kts 218°
2026-04-09 09:40 51.12949 13.76630 750 ft 17 kts 222°
2026-04-09 09:40 51.12864 13.76503 748 ft 16 kts 225°
2026-04-09 09:40 51.12778 13.76483 753 ft 15 kts 135°
2026-04-09 09:41 51.12714 13.76599 749 ft 10 kts 130°
2026-04-09 09:41 51.12676 13.76611 750 ft 5 kts 217°
2026-04-09 09:41 51.12653 13.76577 751 ft 4 kts 222°
2026-04-09 09:41 51.12636 13.76554 749 ft 2 kts 221°
2026-04-09 09:42 51.12630 13.76545 749 ft 0 kts 221°